Time,TemperatureF,DewpointF,PressureIn,WindDirection,WindDirectionDegrees,WindSpeedMPH,WindSpeedGustMPH,Humidity,HourlyPrecipIn,Conditions,Clouds,dailyrainin,SolarRadiationWatts/m^2,SoftwareType,DateUTC
2013-05-14 00:04:00,61.0,58.0,-100.00,ESE,123,2.0,8.0,91,0.00,,,0.00,0.000000,,2013-05-14 10:04:00,
2013-05-14 00:14:00,61.0,58.0,-100.00,ESE,123,2.0,8.0,91,0.00,,,0.00,0.000000,,2013-05-14 10:14:00,
2013-05-14 00:25:00,61.0,58.0,-100.00,ESE,123,2.0,8.0,91,0.00,,,0.00,0.000000,,2013-05-14 10:25:00,
2013-05-14 00:32:00,61.0,58.0,-100.00,ESE,123,2.0,8.0,91,0.00,,,0.00,0.000000,,2013-05-14 10:32:00,
2013-05-14 01:02:00,63.0,61.0,-100.00,SSW,211,7.0,11.0,93,0.00,,,0.00,0.000000,,2013-05-14 11:02:00,
2013-05-14 01:11:00,63.0,61.0,-100.00,SSW,211,7.0,11.0,93,0.00,,,0.00,0.000000,,2013-05-14 11:11:00,
2013-05-14 01:21:00,63.0,61.0,-100.00,SSW,211,7.0,11.0,93,0.00,,,0.00,0.000000,,2013-05-14 11:21:00,
2013-05-14 01:32:00,63.0,61.0,-100.00,SSW,211,7.0,11.0,93,0.00,,,0.00,0.000000,,2013-05-14 11:32:00,
2013-05-14 02:02:00,61.0,57.0,-100.00,SSE,155,6.0,12.0,87,0.00,,,0.00,0.000000,,2013-05-14 12:02:00,
2013-05-14 02:12:00,61.0,57.0,-100.00,SSE,155,6.0,12.0,87,0.00,,,0.00,0.000000,,2013-05-14 12:12:00,
2013-05-14 02:21:00,61.0,57.0,-100.00,SSE,155,6.0,12.0,87,0.00,,,0.00,0.000000,,2013-05-14 12:21:00,
2013-05-14 02:31:00,61.0,57.0,-100.00,SSE,155,6.0,12.0,87,0.00,,,0.00,0.000000,,2013-05-14 12:31:00,
2013-05-14 03:01:00,66.0,52.0,-100.00,ESE,121,12.0,24.0,60,0.00,,,0.00,0.000000,,2013-05-14 13:01:00,
2013-05-14 03:11:00,66.0,52.0,-100.00,ESE,121,12.0,24.0,60,0.00,,,0.00,0.000000,,2013-05-14 13:11:00,
2013-05-14 03:22:00,66.0,52.0,-100.00,ESE,121,12.0,24.0,60,0.00,,,0.00,0.000000,,2013-05-14 13:22:00,
2013-05-14 03:32:00,66.0,52.0,-100.00,ESE,121,12.0,24.0,60,0.00,,,0.00,0.000000,,2013-05-14 13:32:00,
2013-05-14 04:01:00,67.0,51.0,-100.00,SE,142,12.0,24.0,57,0.00,,,0.00,0.000000,,2013-05-14 14:01:00,
2013-05-14 04:11:00,67.0,51.0,-100.00,SE,142,12.0,24.0,57,0.00,,,0.00,0.000000,,2013-05-14 14:11:00,
2013-05-14 04:22:00,67.0,51.0,-100.00,SE,142,12.0,24.0,57,0.00,,,0.00,0.000000,,2013-05-14 14:22:00,
2013-05-14 04:31:00,67.0,51.0,-100.00,SE,142,12.0,24.0,57,0.00,,,0.00,0.000000,,2013-05-14 14:31:00,
2013-05-14 05:01:00,65.0,48.0,-100.00,SSE,160,8.0,24.0,55,0.00,,,0.00,0.000000,,2013-05-14 15:01:00,
2013-05-14 05:12:00,65.0,48.0,-100.00,SSE,160,8.0,24.0,55,0.00,,,0.00,0.000000,,2013-05-14 15:12:00,
2013-05-14 05:21:00,65.0,48.0,-100.00,SSE,160,8.0,24.0,55,0.00,,,0.00,0.000000,,2013-05-14 15:21:00,
2013-05-14 05:32:00,65.0,48.0,-100.00,SSE,160,8.0,24.0,55,0.00,,,0.00,0.000000,,2013-05-14 15:32:00,
2013-05-14 06:02:00,63.0,55.0,-100.00,South,187,7.0,18.0,75,0.00,,,0.00,0.000000,,2013-05-14 16:02:00,
2013-05-14 06:12:00,63.0,55.0,-100.00,South,187,7.0,18.0,75,0.00,,,0.00,0.000000,,2013-05-14 16:12:00,
2013-05-14 06:23:00,63.0,55.0,-100.00,South,187,7.0,18.0,75,0.00,,,0.00,0.000000,,2013-05-14 16:23:00,
2013-05-14 06:33:00,63.0,55.0,-100.00,South,187,7.0,18.0,75,0.00,,,0.00,0.000000,,2013-05-14 16:33:00,
2013-05-14 07:03:00,66.0,52.0,-100.00,SSW,202,1.0,11.0,60,0.00,,,0.00,51.000000,,2013-05-14 17:03:00,
2013-05-14 07:13:00,66.0,52.0,-100.00,SSW,202,1.0,11.0,60,0.00,,,0.00,51.000000,,2013-05-14 17:13:00,
2013-05-14 07:24:00,66.0,52.0,-100.00,SSW,202,1.0,11.0,60,0.00,,,0.00,51.000000,,2013-05-14 17:24:00,
2013-05-14 07:32:00,66.0,52.0,-100.00,SSW,202,1.0,11.0,60,0.00,,,0.00,51.000000,,2013-05-14 17:32:00,
2013-05-14 08:02:00,73.0,53.0,-100.00,North,11,0.0,9.0,50,0.00,,,0.00,315.000000,,2013-05-14 18:02:00,
2013-05-14 08:12:00,73.0,53.0,-100.00,North,11,0.0,9.0,50,0.00,,,0.00,315.000000,,2013-05-14 18:12:00,
2013-05-14 08:22:00,73.0,53.0,-100.00,North,11,0.0,9.0,50,0.00,,,0.00,315.000000,,2013-05-14 18:22:00,
2013-05-14 08:31:00,73.0,53.0,-100.00,North,11,0.0,9.0,50,0.00,,,0.00,315.000000,,2013-05-14 18:31:00,
2013-05-14 09:01:00,73.0,61.0,-100.00,NW,317,4.0,8.0,65,0.00,,,0.00,643.000000,,2013-05-14 19:01:00,
2013-05-14 09:11:00,73.0,61.0,-100.00,NW,317,4.0,8.0,65,0.00,,,0.00,643.000000,,2013-05-14 19:11:00,
2013-05-14 09:21:00,73.0,61.0,-100.00,NW,317,4.0,8.0,65,0.00,,,0.00,643.000000,,2013-05-14 19:21:00,
2013-05-14 09:31:00,73.0,61.0,-100.00,NW,317,4.0,8.0,65,0.00,,,0.00,643.000000,,2013-05-14 19:31:00,
2013-05-14 10:02:00,75.0,62.0,-100.00,West,280,4.0,11.0,65,0.00,,,0.00,664.000000,,2013-05-14 20:02:00,
2013-05-14 10:11:00,75.0,62.0,-100.00,West,280,4.0,11.0,65,0.00,,,0.00,664.000000,,2013-05-14 20:11:00,
2013-05-14 10:22:00,75.0,62.0,-100.00,West,280,4.0,11.0,65,0.00,,,0.00,664.000000,,2013-05-14 20:22:00,
2013-05-14 10:32:00,75.0,62.0,-100.00,West,280,4.0,11.0,65,0.00,,,0.00,664.000000,,2013-05-14 20:32:00,
2013-05-14 11:03:00,78.0,59.0,-100.00,WNW,289,8.0,14.0,52,0.00,,,0.00,1119.000000,,2013-05-14 21:03:00,
2013-05-14 11:12:00,78.0,59.0,-100.00,WNW,289,8.0,14.0,52,0.00,,,0.00,1119.000000,,2013-05-14 21:12:00,
2013-05-14 11:22:00,78.0,59.0,-100.00,WNW,289,8.0,14.0,52,0.00,,,0.00,1119.000000,,2013-05-14 21:22:00,
2013-05-14 11:33:00,78.0,59.0,-100.00,WNW,289,8.0,14.0,52,0.00,,,0.00,1119.000000,,2013-05-14 21:33:00,
2013-05-14 14:01:00,78.0,61.0,-100.00,NNE,13,12.0,21.0,55,-99.99,,,0.00,411.000000,,2013-05-15 00:01:00,
2013-05-14 14:11:00,78.0,61.0,-100.00,NNE,13,12.0,21.0,55,-99.99,,,0.00,411.000000,,2013-05-15 00:11:00,
2013-05-14 14:21:00,78.0,61.0,-100.00,NNE,13,12.0,21.0,55,-99.99,,,0.00,411.000000,,2013-05-15 00:21:00,
2013-05-14 14:32:00,78.0,61.0,-100.00,NNE,13,12.0,21.0,55,-99.99,,,0.00,411.000000,,2013-05-15 00:32:00,
2013-05-14 15:01:00,78.0,62.0,-100.00,NNW,345,15.0,27.0,58,0.00,,,0.00,617.000000,,2013-05-15 01:01:00,
2013-05-14 15:11:00,78.0,62.0,-100.00,NNW,345,15.0,27.0,58,0.00,,,0.00,617.000000,,2013-05-15 01:11:00,
2013-05-14 15:21:00,78.0,62.0,-100.00,NNW,345,15.0,27.0,58,0.00,,,0.00,617.000000,,2013-05-15 01:21:00,
2013-05-14 15:31:00,78.0,62.0,-100.00,NNW,345,15.0,27.0,58,0.00,,,0.00,617.000000,,2013-05-15 01:31:00,
2013-05-14 16:01:00,73.0,59.0,-100.00,North,350,16.0,30.0,61,0.00,,,0.00,455.000000,,2013-05-15 02:01:00,
2013-05-14 16:11:00,73.0,59.0,-100.00,North,350,16.0,30.0,61,0.00,,,0.00,455.000000,,2013-05-15 02:11:00,
2013-05-14 16:21:00,73.0,59.0,-100.00,North,350,16.0,30.0,61,0.00,,,0.00,455.000000,,2013-05-15 02:21:00,
2013-05-14 16:31:00,73.0,59.0,-100.00,North,350,16.0,30.0,61,0.00,,,0.00,455.000000,,2013-05-15 02:31:00,
2013-05-14 17:01:00,73.0,59.0,-100.00,NW,304,10.0,24.0,62,0.00,,,0.00,266.000000,,2013-05-15 03:01:00,
2013-05-14 17:12:00,73.0,59.0,-100.00,NW,304,10.0,24.0,62,0.00,,,0.00,266.000000,,2013-05-15 03:12:00,
2013-05-14 17:21:00,73.0,59.0,-100.00,NW,304,10.0,24.0,62,0.00,,,0.00,266.000000,,2013-05-15 03:21:00,
2013-05-14 17:33:00,73.0,59.0,-100.00,NW,304,10.0,24.0,62,0.00,,,0.00,266.000000,,2013-05-15 03:33:00,
2013-05-14 18:03:00,75.0,60.0,-100.00,NE,47,4.0,17.0,60,0.00,,,0.00,174.000000,,2013-05-15 04:03:00,
2013-05-14 18:12:00,75.0,60.0,-100.00,NE,47,4.0,17.0,60,0.00,,,0.00,174.000000,,2013-05-15 04:12:00,
2013-05-14 18:23:00,75.0,60.0,-100.00,NE,47,4.0,17.0,60,0.00,,,0.00,174.000000,,2013-05-15 04:23:00,
2013-05-14 18:32:00,75.0,60.0,-100.00,NE,47,4.0,17.0,60,0.00,,,0.00,174.000000,,2013-05-15 04:32:00,
2013-05-14 19:02:00,74.0,60.0,-100.00,ENE,61,7.0,15.0,62,0.00,,,0.00,84.000000,,2013-05-15 05:02:00,
2013-05-14 19:12:00,74.0,60.0,-100.00,ENE,61,7.0,15.0,62,0.00,,,0.00,84.000000,,2013-05-15 05:12:00,
2013-05-14 19:22:00,74.0,60.0,-100.00,ENE,61,7.0,15.0,62,0.00,,,0.00,84.000000,,2013-05-15 05:22:00,
2013-05-14 19:32:00,74.0,60.0,-100.00,ENE,61,7.0,15.0,62,0.00,,,0.00,84.000000,,2013-05-15 05:32:00,
2013-05-14 20:02:00,69.0,60.0,-100.00,SSW,201,7.0,13.0,73,0.00,,,0.00,6.000000,,2013-05-15 06:02:00,
2013-05-14 20:11:00,69.0,60.0,-100.00,SSW,201,7.0,13.0,73,0.00,,,0.00,6.000000,,2013-05-15 06:11:00,
2013-05-14 20:21:00,69.0,60.0,-100.00,SSW,201,7.0,13.0,73,0.00,,,0.00,6.000000,,2013-05-15 06:21:00,
2013-05-14 20:31:00,69.0,60.0,-100.00,SSW,201,7.0,13.0,73,0.00,,,0.00,6.000000,,2013-05-15 06:31:00,
2013-05-14 21:01:00,67.0,60.0,-100.00,South,182,5.0,10.0,78,0.00,,,0.00,0.000000,,2013-05-15 07:01:00,
2013-05-14 21:11:00,67.0,60.0,-100.00,South,182,5.0,10.0,78,0.00,,,0.00,0.000000,,2013-05-15 07:11:00,
2013-05-14 21:21:00,67.0,60.0,-100.00,South,182,5.0,10.0,78,0.00,,,0.00,0.000000,,2013-05-15 07:21:00,
2013-05-14 21:31:00,67.0,60.0,-100.00,South,182,5.0,10.0,78,0.00,,,0.00,0.000000,,2013-05-15 07:31:00,
2013-05-14 22:02:00,67.0,56.0,-100.00,ESE,111,0.0,10.0,67,0.00,,,0.00,0.000000,,2013-05-15 08:02:00,
2013-05-14 22:12:00,67.0,56.0,-100.00,ESE,111,0.0,10.0,67,0.00,,,0.00,0.000000,,2013-05-15 08:12:00,
2013-05-14 22:21:00,67.0,56.0,-100.00,ESE,111,0.0,10.0,67,0.00,,,0.00,0.000000,,2013-05-15 08:21:00,
2013-05-14 22:31:00,67.0,56.0,-100.00,ESE,111,0.0,10.0,67,0.00,,,0.00,0.000000,,2013-05-15 08:31:00,
2013-05-14 23:01:00,62.0,58.0,-100.00,South,177,0.0,9.0,88,0.00,,,0.00,0.000000,,2013-05-15 09:01:00,
2013-05-14 23:11:00,62.0,58.0,-100.00,South,177,0.0,9.0,88,0.00,,,0.00,0.000000,,2013-05-15 09:11:00,
2013-05-14 23:21:00,62.0,58.0,-100.00,South,177,0.0,9.0,88,0.00,,,0.00,0.000000,,2013-05-15 09:21:00,
2013-05-14 23:32:00,62.0,58.0,-100.00,South,177,0.0,9.0,88,0.00,,,0.00,0.000000,,2013-05-15 09:32:00,